Location: Township of Marena
(38.1747°N, 99.6798°W)
Time: 14:36:39
(UTC+00:00)

SAR-Lupe-4 - Pass Details

Date: 26 October 2020
Orbit: 481 x 484 km, 98.2° (Epoch: 22 November)

Event Time Altitude Azimuth Distance (km) Brightness Sun altitude
Rises 11:37:03 0° 165° (SSE) 2,533 7.4 -16.7°
Reaches altitude 10° 11:39:06 10° 165° (SSE) 1,657 6.5 -16.3°
Maximum altitude 11:42:40 87° 80° (E) 489 3.5 -15.6°
Drops below altitude 10° 11:46:15 10° 348° (NNW) 1,669 6.1 -14.9°
Sets 11:48:19 0° 348° (NNW) 2,553 7.1 -14.5°
